千帆星座-75 (QIANFAN-75)

导读 | 星芒AI

QIANFAN-75 是中国自主研发的北斗卫星导航系统中的重要成员,主要用于提供高精度定位、导航和授时服务。该卫星采用先进的航天技术和稳定的轨道设计,增强了区域和全球服务能力。QIANFAN-75 的成功发射进一步提升了北斗系统的可靠性和覆盖范围,广泛应用于交通、农业、通信和应急救援等领域,标志着中国在卫星导航技术领域的持续进步与自主创新能力的提升。

基本信息
目录编号:
63161
目录名称:
QIANFAN-75
国际标识:
2025-046C
轨道中心:
EARTH
卫星名称:
千帆星座-75
卫星全名:
千帆星座-75 (QIANFAN-75)
卫星状态:
在轨 (已飞行440 天)
发射日期:
2025-03-11 UTC
国别 :
中国 (CN)
星等 :
--
轨道信息
数据来源 国际轨道数据 AOE轨道数据
星历时间 2026-05-24T09:43:04+0800
1天前
查看轨道信息
2026-05-23T11:00:00+0800
2天前
查看轨道信息
半长轴 7446.705km 7446.709km
偏心率 0.001653 0.0016508
轨道倾角 88.969° 88.968°
近地点辐角 24.876° 27.295°
升交点赤经 303.320° 303.419°
平近点角 335.318° 51.875°
近地点 1056.258km 1056.278km
远地点 1080.878km 1080.866km
周期 106.587分钟 106.587分钟
每日圈数 13.510037 13.510028
详细信息
卫星平台:
75
覆盖范围:
全球
运营商:
上海垣信卫星科技有限公司
运营商所在国:
中国
使用方式:
暂无
卫星简介
千帆星座,也被称为“G60星链”计划,是中国版“星链”的重要组成部分,旨在打造一个由1.4万多颗低轨宽频多媒体卫星构成的庞大星座。千帆星座计划由上海垣信卫星科技有限公司负责实施,于2023年启动建设。该项目是我国第二个低轨卫星大星座,旨在通过构建庞大的卫星网络,为全球用户提供高质量的通信和宽带互联网服务。
2D轨道图
3D轨道图
轨道高度分析图
轨道倾角分析图
轨道综合分析图
查看轨道综合分析图